Regional Weather Roundup
Issued by NWS

Home | Current Version | Previous Version | Text Only | Print | Product List | Glossary On
Versions: 1 2 3 4 5 6 7 8 9 10 11 12 13 14 15 16 17 18 19 20 21 22 23 24 25 26 27 28 29 30 31 32 33 34 35 36 37 38 39 40 41 42 43 44 45 46 47 48 49 50
000
ASUS43 KMKX 021559
RWRWI

WISCONSIN REGIONAL WEATHER ROUNDUP
NATIONAL WEATHER SERVICE MILWAUKEE/SULLIVAN WI
1000 AM CST MON MAR 02 2015

NOTE: "FAIR" INDICATES FEW OR NO CLOUDS BELOW 12,000 FEET WITH NO
SIGNIFICANT WEATHER AND/OR OBSTRUCTIONS TO VISIBILITY.

WIZ001-002-006>008-014>016-023>028-021700-
NORTHWEST WISCONSIN

CITY           SKY/WX    TMP DP  RH WIND       PRES   REMARKS
SUPERIOR ARPT  SUNNY     15   7  71 SW6       30.44R WCI   6
ASHLAND        SUNNY     17   6  62 W9        30.43R WCI   6
HAYWARD        SUNNY     13   6  74 S6        30.42R WCI   4
SIREN          SUNNY     15   9  76 SW7       30.45S WCI   5
CUMBERLAND     SUNNY     10   9  92 S6        30.44R WCI   1
RICE LAKE      SUNNY     14   7  73 SW5       30.48R WCI   6
CHETEK         SUNNY     15   6  68 SW5       30.47R WCI   7
LADYSMITH      SUNNY     14   7  73 SW3       30.46R
EAU CLAIRE     NOT AVBL
MENOMONIE      SUNNY     19   8  63 SW9       30.51R WCI   7
NEW RICHMOND   SUNNY     17  10  72 SW8       30.49R WCI   7
OSCEOLA        SUNNY     17  10  74 SW8       30.52R WCI   7
$$

WIZ003>005-009-010-017-018-021700-
NORTH CENTRAL WISCONSIN

CITY           SKY/WX    TMP DP  RH WIND       PRES   REMARKS
MANITOWISH WTR SUNNY     13   5  70 W3        30.35R
ARBOR VITAE    SUNNY     16   8  71 CALM      30.34S
WOODRUFF       SUNNY     16   8  71 CALM      30.34S
RHINELANDER    SUNNY     16   6  65 W5        30.37R WCI   9
EAGLE RIVER    SUNNY     15   5  66 NW3       30.33F
LAND O LAKES   SUNNY     17   6  63 NW5       30.33F WCI  10
PHILLIPS       SUNNY     14   4  64 SW5       30.39R WCI   7
TOMAHAWK       SUNNY     16   5  62 CALM      30.39R
MEDFORD        SUNNY     12   4  71 W3        30.41R
MERRILL        SUNNY     15   6  66 CALM      30.41S
$$

WIZ029-030-035-036-043>047-021700-
CENTRAL WISCONSIN

CITY           SKY/WX    TMP DP  RH WIND       PRES   REMARKS
WAUSAU         SUNNY     15   6  67 W5        30.42R WCI   8
MOSINEE          N/A     18   7  62 CALM      30.44R
MARSHFIELD     SUNNY     14   5  67 SW9       30.46R WCI   2
STEVENS POINT  SUNNY     15   5  63 CALM      30.45R
WAUPACA        SUNNY     22   6  50 CALM      30.47R
WAUTOMA        NOT AVBL
WISC RAPIDS    SUNNY     19   4  51 CALM      30.49R
CAMP DOUGLAS   NOT AVBL
$$

WIZ011>013-019>022-031-037>040-048>050-021700-
NORTHEAST WISCONSIN

CITY           SKY/WX    TMP DP  RH WIND       PRES   REMARKS
ANTIGO         SUNNY     14   5  67 W7        30.38R WCI   4
SHAWANO        SUNNY     20   7  56 W3        30.45R
OCONTO         SUNNY     20   7  56 W8        30.44F WCI  10
STURGEON BAY   SUNNY     19   7  58 W7        30.45S WCI  10
GREEN BAY      SUNNY     22   8  55 N8        30.45R WCI  12
MANITOWOC      NOT AVBL
APPLETON       SUNNY     19   7  58 W6        30.46R WCI  11
CLINTONVILLE   SUNNY     21   7  53 W5        30.45S WCI  15
OSHKOSH        SUNNY     21   8  57 VRB7      30.47R WCI  12
$$

WIZ032>034-041-042-053>061-021700-
SOUTHWEST WISCONSIN

CITY           SKY/WX    TMP DP  RH WIND       PRES   REMARKS
LA CROSSE      SUNNY     21   8  57 W3        30.54R
SPARTA         SUNNY     20   8  59 CALM      30.51R
VIROQUA        SUNNY     15  10  80 CALM      30.47S
BOSCOBEL       SUNNY     19  11  70 CALM      30.54R
PRAIRIE DU CHI SUNNY     15   7  71 CALM      30.54S
PLATTEVILLE    SUNNY     14  12  90 W5        30.50S WCI   6
$$

WIZ056-057-062-063-064-067-068-021700-
SOUTH CENTRAL WISCONSIN

CITY           SKY/WX    TMP DP  RH WIND       PRES   REMARKS
REEDSBURG      SUNNY     17   8  66 CALM      30.49S
BARABOO/DELLS  SUNNY     19   8  64 CALM      30.48S
LONE ROCK      NOT AVBL
MINERAL POINT  SUNNY     18  12  79 CALM      30.48S
MADISON        MOSUNNY   21   9  59 NW6       30.50S WCI  13
MIDDLETON      SUNNY     22  11  62 N6        30.49S WCI  14
WATERTOWN      SUNNY     21  11  66 NW6       30.48F WCI  13
MONROE         SUNNY     19  14  79 W7        30.48S WCI  10
JANESVILLE     SUNNY     21  10  63 CALM      30.50S
$$

WIZ051-052-058>065-066-070>072-021700-
SOUTHEAST WISCONSIN

CITY           SKY/WX    TMP DP  RH WIND       PRES   REMARKS
MILWAUKEE      SUNNY     23   9  55 NW7       30.49S WCI  15
WAUKESHA       SUNNY     18   9  68 NW7       30.49F WCI   8
MILWAUKEE/TIMM SUNNY     21   9  58 NW7       30.49F WCI  13
RACINE         SUNNY     21   9  59 W7        30.51S WCI  12
BURLINGTON     SUNNY     19   9  65 NW8       30.50R WCI   9
KENOSHA        SUNNY     20  10  65 NW9       30.50R WCI   9
FOND DU LAC    SUNNY     21   8  57 N6        30.47S WCI  13
SHEBOYGAN      SUNNY     22   8  55 NW9       30.47R WCI  12
WEST BEND      SUNNY     21   9  58 NW7       30.47S WCI  13
JUNEAU         SUNNY     19  10  67 NW5       30.49S WCI  12
$$

LSZ147-162-021700-
LAKE SUPERIOR

STATION/POSITION TIME  TEMP    WIND        PRES    WAVE
                       AIR SEA DIR/SP/G            HT/PER
                 (UTC) (F)     (DEG/KT/KT) (MB)    (FT/S)
DEVILS ISLAND    1500   15     230/  9/ 11 1031.1R
PORT WING        1500   13     240/  6/  9 1030.1R
SAXON HARBOR     1500   16     190/  2/  6 1029.8S
$$

LMZ867-665-643>646-021700-
LAKE MICHIGAN

STATION/POSITION TIME  TEMP    WIND        PRES    WAVE
                       AIR SEA DIR/SP/G            HT/PER
                 (UTC) (F)     (DEG/KT/KT) (MB)    (FT/S)
NORTHPORT PIER   1507   22     280/  6/ 13 1030.1R
SISTER BAY       1443   27     280/  9/ 10   N/A
KEWAUNEE LAKESHO 1500   19     320/  9/ 13 1030.3R
SHEBOYGAN LAKESH 1500   20     330/  9/ 10 1033.1R
PORT WASHINGTON  1540   22     320/  6/ 10 1033.2R
MILWAUKEE LAKESH 1500   20     310/  9/ 13   N/A
KENOSHA   LAKESH 1500   18     300/ 12/ 16 1032.2S
$$

TC  - TEMPERATURE IN CELSIUS
VSB - VISIBILITY IN STATUTE MILES
WCI - WIND CHILL INDEX
HX  - HEAT INDEX




USA.gov is the U.S. government's official web portal to all federal, state and local government web resources and services.